GW6408 Weather Reports


time (UTC)temp
C
wind
direction
speed
KPH
gust
KPH
rain 1hr
cm
rain 24hr
cm
rain mn
cm
humidity
%
barometer
mb
20260505183009 28 267 8.0 17.7 0.00 0.00 0.00 36 1015.7
20260505181512 27 267 4.8 19.3 0.00 0.00 0.00 37 1015.6
20260505180020 27 279 11.3 25.7 0.00 0.00 0.00 38 1015.7
20260505174522 27 307 9.7 24.1 0.00 0.00 0.00 38 1015.8
20260505173028 27 204 9.7 29.0 0.00 0.00 0.00 37 1015.8
20260505171512 27 186 6.4 20.9 0.00 0.00 0.00 38 1016.0
20260505170021 26 264 11.3 25.7 0.00 0.00 0.00 41 1016.3
20260505164523 26 232 8.0 24.1 0.00 0.00 0.00 41 1016.4
20260505163024 26 213 8.0 17.7 0.00 0.00 0.00 42 1016.6
20260505161529 26 227 1.6 17.7 0.00 0.00 0.00 44 1016.6
20260505153025 25 217 11.3 24.1 0.00 0.00 0.00 47 1016.6
20260505151532 23 196 9.7 25.7 0.00 0.00 0.00 48 1016.9
20260505124518 18 219 6.4 16.1 0.00 0.00 0.00 63 1017.4
20260505123025 17 251 3.2 12.9 0.00 0.00 0.00 64 1017.4
20260505121510 17 266 8.0 19.3 0.00 0.00 0.00 66 1017.3
20260505120009 16 263 9.7 17.7 0.00 0.00 0.00 68 1017.2
20260505114532 16 205 3.2 24.1 0.00 0.00 0.00 69 1017.2
20260505113014 16 240 3.2 17.7 0.00 0.00 0.00 71 1017.1
20260505111533 15 221 6.4 14.5 0.00 0.00 0.00 72 1017.1
20260505101518 15 292 3.2 14.5 0.00 0.00 0.00 72 1016.3
20260505100014 15 215 3.2 16.1 0.00 0.00 0.00 72 1016.1
20260505094516 15 221 3.2 11.3 0.00 0.00 0.00 71 1016.0
20260505093023 15 244 4.8 11.3 0.00 0.00 0.00 70 1015.9
20260505091523 15 215 3.2 11.3 0.00 0.00 0.00 69 1015.8
20260505090025 16 290 3.2 16.1 0.00 0.00 0.00 68 1015.7
20260505084506 16 270 4.8 12.9 0.00 0.00 0.00 67 1015.8
20260505083009 16 279 3.2 16.1 0.00 0.00 0.00 66 1015.7
20260505081518 16 247 4.8 12.9 0.00 0.00 0.00 66 1015.6
20260505080025 16 254 3.2 16.1 0.00 0.00 0.00 65 1015.5
20260505074531 16 211 4.8 12.9 0.00 0.00 0.00 65 1015.5
20260505073012 17 232 3.2 14.5 0.00 0.00 0.00 64 1015.5
20260505071518 17 250 8.0 16.1 0.00 0.00 0.00 64 1015.3
20260505070020 17 257 4.8 17.7 0.00 0.00 0.00 63 1015.2
20260505064524 17 265 3.2 16.1 0.00 0.00 0.00 62 1015.2
20260505063041 17 213 4.8 16.1 0.00 0.00 0.00 62 1015.2
20260505061512 17 275 6.4 17.7 0.00 0.00 0.00 61 1015.3
20260505060017 17 252 6.4 14.5 0.00 0.00 0.00 61 1015.3
20260505054527 17 240 4.8 22.5 0.00 0.00 0.00 61 1015.4
20260505053026 17 222 6.4 17.7 0.00 0.00 0.00 60 1015.6
20260505051513 17 225 6.4 24.1 0.00 0.00 0.00 60 1015.5
20260505041542 18 340 8.0 22.5 0.00 0.00 0.00 60 1015.6
20260505040011 18 101 4.8 24.1 0.00 0.00 0.00 60 1015.5
20260505034515 18 241 6.4 20.9 0.00 0.00 0.00 60 1015.5
20260505033024 18 242 8.0 24.1 0.00 0.00 0.00 59 1015.4
20260505031531 18 215 8.0 22.5 0.00 0.00 0.00 59 1015.2
20260505030026 18 189 6.4 17.7 0.00 0.00 0.00 60 1015.3
20260505024516 18 234 8.0 29.0 0.00 0.00 0.00 60 1015.4
20260505023022 19 159 11.3 29.0 0.00 0.00 0.00 60 1015.3
20260505021525 19 193 12.9 19.3 0.00 0.00 0.00 61 1015.1
20260505020034 19 223 11.3 20.9 0.00 0.00 0.00 60 1015.2
20260505014527 20 223 9.7 27.4 0.00 0.00 0.00 60 1015.1
20260505013018 20 202 9.7 29.0 0.00 0.00 0.00 59 1014.9
20260505011506 20 198 12.9 22.5 0.00 0.00 0.00 59 1014.7
20260505010013 20 191 9.7 20.9 0.00 0.00 0.00 59 1014.5
20260505004511 20 190 12.9 24.1 0.00 0.00 0.00 58 1014.2
20260505003027 21 229 12.9 24.1 0.00 0.00 0.00 57 1014.2
20260505001520 21 197 8.0 32.2 0.00 0.00 0.00 56 1014.0
20260505000011 21 248 8.0 22.5 0.00 0.00 0.00 54 1013.8
20260504234510 22 250 14.5 29.0 0.00 0.00 0.00 52 1013.8
20260504233014 22 198 9.7 24.1 0.00 0.00 0.00 49 1013.4
20260504231522 23 189 9.7 25.7 0.00 0.00 0.00 36 1013.2
20260504230010 24 263 9.7 19.3 0.00 0.00 0.00 35 1013.1
20260504224509 25 223 6.4 20.9 0.00 0.00 0.00 35 1013.0
20260504223011 25 231 6.4 19.3 0.00 0.00 0.00 34 1013.2
20260504221518 25 259 6.4 25.7 0.00 0.00 0.00 33 1013.1
20260504220024 25 263 4.8 19.3 0.00 0.00 0.00 33 1013.1
20260504214509 25 255 3.2 27.4 0.00 0.00 0.00 33 1013.2
20260504213012 26 234 8.0 17.7 0.00 0.00 0.00 33 1013.3
20260504211527 25 196 11.3 32.2 0.00 0.00 0.00 33 1013.2
20260504210023 26 195 8.0 22.5 0.00 0.00 0.00 32 1013.3
20260504204525 25 157 6.4 22.5 0.00 0.00 0.00 33 1013.3
20260504203006 26 246 8.0 25.7 0.00 0.00 0.00 32 1013.4
20260504201513 25 209 4.8 19.3 0.00 0.00 0.00 33 1013.5
20260504200021 26 167 4.8 17.7 0.00 0.00 0.00 33 1013.6
20260504194525 26 242 6.4 19.3 0.00 0.00 0.00 33 1013.8
20260504193008 25 271 11.3 22.5 0.00 0.00 0.00 33 1014.0
20260504191514 25 195 4.8 20.9 0.00 0.00 0.00 33 1014.1
20260504190018 25 252 11.3 27.4 0.00 0.00 0.00 33 1014.4
20260504184536 25 288 3.2 19.3 0.00 0.00 0.00 36 1014.6